Time,TemperatureF,DewpointF,PressureIn,WindDirection,WindDirectionDegrees,WindSpeedMPH,WindSpeedGustMPH,Humidity,HourlyPrecipIn,Conditions,Clouds,dailyrainin,SoftwareType,DateUTC
2013-01-18 00:03:00,34.9,29.6,29.76,ESE,113,3.4,5.6,81,0.00,,,0.00,WUHU216HW,2013-01-18 00:03:00,
2013-01-18 00:08:00,34.9,29.6,29.76,East,90,3.4,5.6,81,0.00,,,0.00,WUHU216HW,2013-01-18 00:08:00,
2013-01-18 00:13:00,34.9,29.6,29.76,SE,135,3.4,3.4,81,0.00,,,0.00,WUHU216HW,2013-01-18 00:13:00,
2013-01-18 00:18:00,34.9,29.6,29.75,SE,135,2.7,3.4,81,0.00,,,0.00,WUHU216HW,2013-01-18 00:18:00,
2013-01-18 00:23:00,34.9,29.6,29.75,ESE,113,4.7,4.7,81,0.00,,,0.00,WUHU216HW,2013-01-18 00:23:00,
2013-01-18 00:28:00,34.7,29.4,29.75,ESE,113,5.4,5.4,81,0.00,,,0.00,WUHU216HW,2013-01-18 00:28:00,
2013-01-18 00:33:00,34.7,29.4,29.75,ESE,113,3.4,5.4,81,0.00,,,0.00,WUHU216HW,2013-01-18 00:33:00,
2013-01-18 00:38:00,34.7,29.4,29.75,ESE,113,1.6,3.8,81,0.00,,,0.00,WUHU216HW,2013-01-18 00:38:00,
2013-01-18 00:43:00,34.7,29.4,29.75,NE,45,1.1,3.4,81,0.00,,,0.00,WUHU216HW,2013-01-18 00:43:00,
2013-01-18 00:48:00,34.7,29.4,29.75,SSE,158,1.1,1.6,81,0.00,,,0.00,WUHU216HW,2013-01-18 00:48:00,
2013-01-18 00:53:00,34.7,29.2,29.75,ESE,113,7.2,7.2,80,0.00,,,0.00,WUHU216HW,2013-01-18 00:53:00,
2013-01-18 00:58:00,34.7,29.2,29.75,ESE,113,1.6,7.2,80,0.00,,,0.00,WUHU216HW,2013-01-18 00:58:00,
2013-01-18 01:03:00,34.7,29.2,29.75,SE,135,2.5,7.2,80,0.00,,,0.00,WUHU216HW,2013-01-18 01:03:00,
2013-01-18 01:08:00,34.7,29.2,29.74,SE,135,6.0,6.0,80,0.00,,,0.00,WUHU216HW,2013-01-18 01:08:00,
2013-01-18 01:13:00,34.7,29.2,29.74,ENE,68,1.6,6.0,80,0.00,,,0.00,WUHU216HW,2013-01-18 01:13:00,
2013-01-18 01:18:00,34.9,29.3,29.74,ESE,113,1.1,6.0,80,0.00,,,0.00,WUHU216HW,2013-01-18 01:18:00,
2013-01-18 01:23:00,34.9,29.3,29.74,ESE,113,1.6,4.7,80,0.00,,,0.00,WUHU216HW,2013-01-18 01:23:00,
2013-01-18 01:28:00,34.7,28.8,29.74,ESE,113,2.5,2.5,79,0.00,,,0.00,WUHU216HW,2013-01-18 01:28:00,
2013-01-18 01:33:00,34.7,28.8,29.74,SE,135,2.9,2.9,79,0.00,,,0.00,WUHU216HW,2013-01-18 01:33:00,
2013-01-18 01:38:00,34.9,29.0,29.74,ENE,68,1.1,2.9,79,0.00,,,0.00,WUHU216HW,2013-01-18 01:38:00,
2013-01-18 01:43:00,34.9,29.0,29.74,East,90,1.8,2.9,79,0.00,,,0.00,WUHU216HW,2013-01-18 01:43:00,
2013-01-18 01:48:00,34.9,28.7,29.73,East,90,5.1,5.1,78,0.00,,,0.00,WUHU216HW,2013-01-18 01:48:00,
2013-01-18 01:53:00,34.9,28.7,29.73,ENE,68,1.3,5.1,78,0.00,,,0.00,WUHU216HW,2013-01-18 01:53:00,
2013-01-18 01:58:00,34.9,28.7,29.73,ESE,113,1.8,2.2,78,0.00,,,0.00,WUHU216HW,2013-01-18 01:58:00,
2013-01-18 02:03:00,34.9,28.4,29.73,ENE,68,2.0,2.0,77,0.00,,,0.00,WUHU216HW,2013-01-18 02:03:00,
2013-01-18 02:08:00,34.9,28.4,29.73,SE,135,2.0,2.0,77,0.00,,,0.00,WUHU216HW,2013-01-18 02:08:00,
2013-01-18 02:13:00,34.9,28.4,29.73,SE,135,2.2,2.2,77,0.00,,,0.00,WUHU216HW,2013-01-18 02:13:00,
2013-01-18 02:18:00,34.9,28.4,29.73,ESE,113,2.9,2.9,77,0.00,,,0.00,WUHU216HW,2013-01-18 02:18:00,
2013-01-18 02:23:00,35.1,28.3,29.72,ESE,113,6.3,6.3,76,0.00,,,0.00,WUHU216HW,2013-01-18 02:23:00,
2013-01-18 02:28:00,35.1,28.3,29.72,East,90,3.4,6.3,76,0.00,,,0.00,WUHU216HW,2013-01-18 02:28:00,
2013-01-18 02:33:00,35.1,28.3,29.72,ESE,113,1.3,6.3,76,0.00,,,0.00,WUHU216HW,2013-01-18 02:33:00,
2013-01-18 02:38:00,35.1,28.3,29.72,ESE,113,1.6,3.4,76,0.00,,,0.00,WUHU216HW,2013-01-18 02:38:00,
2013-01-18 02:43:00,35.1,28.3,29.72,SE,135,4.0,4.0,76,0.00,,,0.00,WUHU216HW,2013-01-18 02:43:00,
2013-01-18 02:48:00,35.1,28.3,29.71,East,90,1.3,4.0,76,0.00,,,0.00,WUHU216HW,2013-01-18 02:48:00,
2013-01-18 02:53:00,34.9,27.7,29.72,SE,135,4.0,4.0,75,0.00,,,0.00,WUHU216HW,2013-01-18 02:53:00,
2013-01-18 02:58:00,34.9,27.7,29.71,ESE,113,3.6,4.0,75,0.00,,,0.00,WUHU216HW,2013-01-18 02:58:00,
2013-01-18 03:03:00,34.9,27.7,29.71,ESE,113,2.5,4.0,75,0.00,,,0.00,WUHU216HW,2013-01-18 03:03:00,
2013-01-18 03:08:00,35.1,27.5,29.71,ESE,113,3.6,3.6,74,0.00,,,0.00,WUHU216HW,2013-01-18 03:08:00,
2013-01-18 03:13:00,34.9,27.4,29.71,SE,135,3.6,3.6,74,0.00,,,0.00,WUHU216HW,2013-01-18 03:13:00,
2013-01-18 03:18:00,35.1,27.5,29.71,ESE,113,4.7,4.7,74,0.00,,,0.00,WUHU216HW,2013-01-18 03:18:00,
2013-01-18 03:23:00,35.1,27.3,29.71,ESE,113,3.4,4.7,73,0.00,,,0.00,WUHU216HW,2013-01-18 03:23:00,
2013-01-18 03:28:00,35.1,27.3,29.70,ENE,68,4.0,4.0,73,0.00,,,0.00,WUHU216HW,2013-01-18 03:28:00,
2013-01-18 03:33:00,35.1,27.3,29.70,East,90,2.2,4.0,73,0.00,,,0.00,WUHU216HW,2013-01-18 03:33:00,
2013-01-18 03:38:00,35.1,27.3,29.70,SE,135,8.5,8.5,73,0.00,,,0.00,WUHU216HW,2013-01-18 03:38:00,
2013-01-18 03:43:00,35.1,27.3,29.70,ENE,68,2.2,8.5,73,0.00,,,0.00,WUHU216HW,2013-01-18 03:43:00,
2013-01-18 03:48:00,35.1,26.9,29.70,NNE,23,3.8,8.5,72,0.00,,,0.00,WUHU216HW,2013-01-18 03:48:00,
2013-01-18 03:53:00,35.1,26.7,29.70,ESE,113,2.9,5.4,71,0.00,,,0.00,WUHU216HW,2013-01-18 03:53:00,
2013-01-18 03:58:00,35.1,26.7,29.70,East,90,2.5,3.8,71,0.00,,,0.00,WUHU216HW,2013-01-18 03:58:00,
2013-01-18 04:03:00,35.1,26.7,29.70,East,90,1.1,2.9,71,0.00,,,0.00,WUHU216HW,2013-01-18 04:03:00,
2013-01-18 04:09:00,34.9,26.1,29.69,East,90,3.4,3.4,70,0.00,,,0.00,WUHU216HW,2013-01-18 04:09:00,
2013-01-18 04:14:00,34.9,26.1,29.69,ESE,113,7.4,7.4,70,0.00,,,0.00,WUHU216HW,2013-01-18 04:14:00,
2013-01-18 04:19:00,34.9,26.1,29.69,ESE,113,4.0,7.4,70,0.00,,,0.00,WUHU216HW,2013-01-18 04:19:00,
2013-01-18 04:24:00,34.9,26.5,29.69,ESE,113,5.4,7.4,71,0.00,,,0.00,WUHU216HW,2013-01-18 04:24:00,
2013-01-18 04:29:00,34.7,26.3,29.69,SE,135,2.5,5.4,71,0.00,,,0.00,WUHU216HW,2013-01-18 04:29:00,
2013-01-18 04:34:00,34.6,26.1,29.69,ESE,113,2.0,3.4,71,0.00,,,0.00,WUHU216HW,2013-01-18 04:34:00,
2013-01-18 04:39:00,34.6,26.1,29.69,NE,45,1.8,2.5,71,0.00,,,0.00,WUHU216HW,2013-01-18 04:39:00,
2013-01-18 04:44:00,34.4,26.2,29.68,ESE,113,2.7,2.7,72,0.00,,,0.00,WUHU216HW,2013-01-18 04:44:00,
2013-01-18 04:49:00,34.4,26.2,29.68,NE,45,0.9,2.7,72,0.00,,,0.00,WUHU216HW,2013-01-18 04:49:00,
2013-01-18 04:54:00,34.4,26.2,29.68,SE,135,0.9,2.7,72,0.00,,,0.00,WUHU216HW,2013-01-18 04:54:00,
2013-01-18 04:59:00,34.2,26.0,29.68,ENE,68,1.6,6.9,72,0.00,,,0.00,WUHU216HW,2013-01-18 04:59:00,
2013-01-18 05:04:00,34.2,26.0,29.68,ESE,113,1.6,6.9,72,0.00,,,0.00,WUHU216HW,2013-01-18 05:04:00,
2013-01-18 05:09:00,34.2,26.0,29.68,ENE,68,0.9,1.6,72,0.00,,,0.00,WUHU216HW,2013-01-18 05:09:00,
2013-01-18 05:14:00,34.2,26.4,29.68,SE,135,1.8,1.8,73,0.00,,,0.00,WUHU216HW,2013-01-18 05:14:00,
2013-01-18 05:19:00,34.2,26.4,29.68,ENE,68,4.3,4.3,73,0.00,,,0.00,WUHU216HW,2013-01-18 05:19:00,
2013-01-18 05:24:00,34.2,26.4,29.68,ESE,113,2.9,4.3,73,0.00,,,0.00,WUHU216HW,2013-01-18 05:24:00,
2013-01-18 05:29:00,34.2,26.4,29.68,SSE,158,2.5,4.3,73,0.00,,,0.00,WUHU216HW,2013-01-18 05:29:00,
2013-01-18 05:34:00,34.2,26.4,29.67,ESE,113,3.4,3.4,73,0.00,,,0.00,WUHU216HW,2013-01-18 05:34:00,
2013-01-18 05:39:00,34.2,26.4,29.67,East,90,3.4,3.4,73,0.00,,,0.00,WUHU216HW,2013-01-18 05:39:00,
2013-01-18 05:44:00,34.2,26.6,29.67,SE,135,1.6,3.4,74,0.00,,,0.00,WUHU216HW,2013-01-18 05:44:00,
2013-01-18 05:49:00,34.2,26.6,29.67,SE,135,2.9,2.9,74,0.00,,,0.00,WUHU216HW,2013-01-18 05:49:00,
2013-01-18 05:54:00,34.2,26.6,29.66,ENE,68,1.8,2.9,74,0.00,,,0.00,WUHU216HW,2013-01-18 05:54:00,
2013-01-18 05:59:00,34.2,26.6,29.66,SE,135,1.6,4.9,74,0.00,,,0.00,WUHU216HW,2013-01-18 05:59:00,
2013-01-18 06:04:00,34.2,26.6,29.66,ENE,68,2.5,4.9,74,0.00,,,0.00,WUHU216HW,2013-01-18 06:04:00,
2013-01-18 06:09:00,34.2,26.6,29.67,ESE,113,1.1,2.5,74,0.00,,,0.00,WUHU216HW,2013-01-18 06:09:00,
2013-01-18 06:14:00,34.2,26.6,29.66,SE,135,1.3,2.5,74,0.00,,,0.00,WUHU216HW,2013-01-18 06:14:00,
2013-01-18 06:19:00,34.2,26.4,29.66,ESE,113,6.0,7.2,73,0.00,,,0.00,WUHU216HW,2013-01-18 06:19:00,
2013-01-18 06:24:00,34.2,26.4,29.66,ENE,68,1.6,7.2,73,0.00,,,0.00,WUHU216HW,2013-01-18 06:24:00,
2013-01-18 06:29:00,34.2,26.4,29.66,SE,135,4.0,6.0,73,0.00,,,0.00,WUHU216HW,2013-01-18 06:29:00,
2013-01-18 06:34:00,34.2,26.4,29.66,ESE,113,4.9,4.9,73,0.00,,,0.00,WUHU216HW,2013-01-18 06:34:00,
2013-01-18 06:39:00,34.2,26.4,29.66,ENE,68,0.4,4.9,73,0.00,,,0.00,WUHU216HW,2013-01-18 06:39:00,
2013-01-18 06:44:00,34.2,26.4,29.65,East,90,2.9,4.9,73,0.00,,,0.00,WUHU216HW,2013-01-18 06:44:00,
2013-01-18 06:49:00,34.2,26.6,29.65,ENE,68,2.2,2.9,74,0.00,,,0.00,WUHU216HW,2013-01-18 06:49:00,
2013-01-18 06:54:00,34.0,26.8,29.65,ESE,113,2.5,2.9,75,0.00,,,0.00,WUHU216HW,2013-01-18 06:54:00,
2013-01-18 06:59:00,34.0,26.8,29.65,East,90,4.5,4.5,75,0.00,,,0.00,WUHU216HW,2013-01-18 06:59:00,
2013-01-18 07:04:00,33.8,26.6,29.65,ESE,113,4.7,4.7,75,0.00,,,0.00,WUHU216HW,2013-01-18 07:04:00,
2013-01-18 07:09:00,33.8,26.6,29.65,ESE,113,3.8,4.7,75,0.00,,,0.00,WUHU216HW,2013-01-18 07:09:00,
2013-01-18 07:14:00,33.8,26.6,29.65,SSE,158,2.0,4.7,75,0.00,,,0.00,WUHU216HW,2013-01-18 07:14:00,
2013-01-18 07:19:00,33.8,26.3,29.65,ENE,68,7.6,7.6,74,0.00,,,0.00,WUHU216HW,2013-01-18 07:19:00,
2013-01-18 07:24:00,33.8,26.3,29.65,NE,45,2.7,7.6,74,0.00,,,0.00,WUHU216HW,2013-01-18 07:24:00,
2013-01-18 07:29:00,33.8,26.3,29.65,East,90,2.2,7.6,74,0.00,,,0.00,WUHU216HW,2013-01-18 07:29:00,
2013-01-18 07:34:00,33.7,25.8,29.65,SE,135,4.0,4.0,73,0.00,,,0.00,WUHU216HW,2013-01-18 07:34:00,
2013-01-18 07:39:00,33.7,25.8,29.65,SSE,158,4.9,4.9,73,0.00,,,0.00,WUHU216HW,2013-01-18 07:39:00,
2013-01-18 07:44:00,33.5,25.4,29.65,NNW,338,2.9,4.9,72,0.00,,,0.00,WUHU216HW,2013-01-18 07:44:00,
2013-01-18 07:49:00,33.5,25.4,29.64,ESE,113,2.2,4.9,72,0.00,,,0.00,WUHU216HW,2013-01-18 07:49:00,
2013-01-18 07:54:00,33.5,24.7,29.64,ESE,113,2.5,4.0,70,0.00,,,0.00,WUHU216HW,2013-01-18 07:54:00,
2013-01-18 07:59:00,33.5,24.7,29.64,ENE,68,3.8,4.0,70,0.00,,,0.00,WUHU216HW,2013-01-18 07:59:00,
2013-01-18 08:04:00,33.5,24.7,29.64,SE,135,1.8,3.8,70,0.00,,,0.00,WUHU216HW,2013-01-18 08:04:00,
2013-01-18 08:09:00,33.7,24.5,29.64,SE,135,2.5,3.8,69,0.00,,,0.00,WUHU216HW,2013-01-18 08:09:00,
2013-01-18 08:14:00,33.7,24.1,29.64,ESE,113,7.2,7.2,68,0.00,,,0.00,WUHU216HW,2013-01-18 08:14:00,
2013-01-18 08:19:00,33.7,23.8,29.64,ESE,113,5.4,7.2,67,0.00,,,0.00,WUHU216HW,2013-01-18 08:19:00,
2013-01-18 08:24:00,33.7,23.4,29.64,NNE,23,4.5,7.2,66,0.00,,,0.00,WUHU216HW,2013-01-18 08:24:00,
2013-01-18 08:29:00,33.7,23.4,29.64,ENE,68,6.9,6.9,66,0.00,,,0.00,WUHU216HW,2013-01-18 08:29:00,
2013-01-18 08:34:00,33.7,23.4,29.64,SE,135,8.5,8.5,66,0.00,,,0.00,WUHU216HW,2013-01-18 08:34:00,
2013-01-18 08:39:00,33.5,23.2,29.64,ESE,113,2.2,8.5,66,0.00,,,0.00,WUHU216HW,2013-01-18 08:39:00,
2013-01-18 08:44:00,33.5,22.9,29.64,SSE,158,5.4,8.5,65,0.00,,,0.00,WUHU216HW,2013-01-18 08:44:00,
2013-01-18 08:49:00,33.5,23.2,29.64,East,90,2.2,5.4,66,0.00,,,0.00,WUHU216HW,2013-01-18 08:49:00,
2013-01-18 08:54:00,33.5,23.2,29.64,SE,135,4.9,5.4,66,0.00,,,0.00,WUHU216HW,2013-01-18 08:54:00,
2013-01-18 08:59:00,33.5,23.6,29.64,ESE,113,4.0,4.9,67,0.00,,,0.00,WUHU216HW,2013-01-18 08:59:00,
2013-01-18 09:04:00,33.5,23.6,29.64,ESE,113,1.1,4.0,67,0.00,,,0.00,WUHU216HW,2013-01-18 09:04:00,
2013-01-18 09:09:00,33.5,23.6,29.64,NE,45,1.8,4.0,67,0.00,,,0.00,WUHU216HW,2013-01-18 09:09:00,
2013-01-18 09:14:00,33.5,23.6,29.64,ESE,113,1.3,1.8,67,0.00,,,0.00,WUHU216HW,2013-01-18 09:14:00,
2013-01-18 09:19:00,33.5,23.6,29.64,NE,45,1.8,1.8,67,0.00,,,0.00,WUHU216HW,2013-01-18 09:19:00,
2013-01-18 09:24:00,33.3,23.5,29.64,ENE,68,1.3,1.8,67,0.00,,,0.00,WUHU216HW,2013-01-18 09:24:00,
2013-01-18 09:30:00,33.3,23.5,29.63,ESE,113,0.9,2.7,67,0.00,,,0.00,WUHU216HW,2013-01-18 09:30:00,
2013-01-18 09:35:00,33.5,23.6,29.63,NE,45,2.2,2.7,67,0.00,,,0.00,WUHU216HW,2013-01-18 09:35:00,
2013-01-18 09:40:00,33.5,23.6,29.63,ESE,113,4.0,4.0,67,0.00,,,0.00,WUHU216HW,2013-01-18 09:40:00,
2013-01-18 09:45:00,33.5,23.6,29.63,ESE,113,4.7,4.7,67,0.00,,,0.00,WUHU216HW,2013-01-18 09:45:00,
2013-01-18 09:50:00,33.5,23.6,29.63,ESE,113,1.6,4.7,67,0.00,,,0.00,WUHU216HW,2013-01-18 09:50:00,
2013-01-18 09:55:00,33.5,23.6,29.63,ENE,68,1.1,4.7,67,0.00,,,0.00,WUHU216HW,2013-01-18 09:55:00,
2013-01-18 10:00:00,33.7,23.8,29.63,East,90,3.8,3.8,67,0.00,,,0.00,WUHU216HW,2013-01-18 10:00:00,
2013-01-18 10:05:00,33.7,23.8,29.63,ESE,113,1.8,3.8,67,0.00,,,0.00,WUHU216HW,2013-01-18 10:05:00,
2013-01-18 10:10:00,33.7,23.8,29.63,ESE,113,3.8,3.8,67,0.00,,,0.00,WUHU216HW,2013-01-18 10:10:00,
2013-01-18 10:15:00,33.7,23.8,29.63,North,0,1.8,3.8,67,0.00,,,0.00,WUHU216HW,2013-01-18 10:15:00,
2013-01-18 10:20:00,33.8,23.9,29.62,SE,135,6.9,6.9,67,0.00,,,0.00,WUHU216HW,2013-01-18 10:20:00,
2013-01-18 10:25:00,34.0,24.5,29.62,ESE,113,2.0,6.9,68,0.00,,,0.00,WUHU216HW,2013-01-18 10:25:00,
2013-01-18 10:30:00,34.2,24.7,29.62,SE,135,2.5,6.9,68,0.00,,,0.00,WUHU216HW,2013-01-18 10:30:00,
2013-01-18 10:35:00,34.2,24.3,29.62,East,90,1.3,9.2,67,0.00,,,0.00,WUHU216HW,2013-01-18 10:35:00,
2013-01-18 10:40:00,34.2,24.3,29.62,North,0,1.6,9.2,67,0.00,,,0.00,WUHU216HW,2013-01-18 10:40:00,
2013-01-18 10:45:00,34.0,24.5,29.62,ESE,113,2.0,2.0,68,0.00,,,0.00,WUHU216HW,2013-01-18 10:45:00,
2013-01-18 10:50:00,34.0,24.5,29.61,East,90,2.7,2.7,68,0.00,,,0.00,WUHU216HW,2013-01-18 10:50:00,
2013-01-18 10:55:00,34.0,24.1,29.61,ESE,113,2.7,2.7,67,0.00,,,0.00,WUHU216HW,2013-01-18 10:55:00,
2013-01-18 11:00:00,34.2,24.7,29.61,NNE,23,0.9,2.7,68,0.00,,,0.00,WUHU216HW,2013-01-18 11:00:00,
2013-01-18 11:05:00,34.2,24.3,29.61,NNE,23,3.1,3.1,67,0.00,,,0.00,WUHU216HW,2013-01-18 11:05:00,
2013-01-18 11:10:00,34.2,24.7,29.61,East,90,5.1,5.1,68,0.00,,,0.00,WUHU216HW,2013-01-18 11:10:00,
2013-01-18 11:15:00,34.2,24.3,29.60,ENE,68,1.1,5.1,67,0.00,,,0.00,WUHU216HW,2013-01-18 11:15:00,
2013-01-18 11:20:00,34.2,24.3,29.60,ESE,113,1.8,5.1,67,0.00,,,0.00,WUHU216HW,2013-01-18 11:20:00,
2013-01-18 11:25:00,34.4,24.5,29.60,NW,315,1.1,1.8,67,0.00,,,0.00,WUHU216HW,2013-01-18 11:25:00,
2013-01-18 11:30:00,34.4,24.5,29.60,East,90,2.7,2.7,67,0.00,,,0.00,WUHU216HW,2013-01-18 11:30:00,
2013-01-18 11:35:00,34.4,24.5,29.60,East,90,4.0,4.0,67,0.00,,,0.00,WUHU216HW,2013-01-18 11:35:00,
2013-01-18 11:40:00,34.4,24.5,29.59,East,90,4.3,4.3,67,0.00,,,0.00,WUHU216HW,2013-01-18 11:40:00,
2013-01-18 11:45:00,34.6,25.0,29.59,ENE,68,5.8,5.8,68,0.00,,,0.00,WUHU216HW,2013-01-18 11:45:00,
2013-01-18 11:50:00,34.6,25.0,29.59,ENE,68,4.5,5.8,68,0.00,,,0.00,WUHU216HW,2013-01-18 11:50:00,
2013-01-18 11:55:00,34.7,25.2,29.59,ESE,113,2.7,5.8,68,0.00,,,0.00,WUHU216HW,2013-01-18 11:55:00,
2013-01-18 12:00:00,34.7,25.6,29.59,ESE,113,2.9,4.5,69,0.00,,,0.00,WUHU216HW,2013-01-18 12:00:00,
2013-01-18 12:05:00,34.7,25.6,29.59,SE,135,2.2,2.9,69,0.00,,,0.00,WUHU216HW,2013-01-18 12:05:00,
2013-01-18 12:10:00,34.9,25.7,29.60,ESE,113,1.6,2.9,69,0.00,,,0.00,WUHU216HW,2013-01-18 12:10:00,
2013-01-18 12:15:00,34.9,25.7,29.60,NE,45,2.5,2.5,69,0.00,,,0.00,WUHU216HW,2013-01-18 12:15:00,
2013-01-18 12:20:00,34.9,25.7,29.59,ESE,113,3.8,3.8,69,0.00,,,0.00,WUHU216HW,2013-01-18 12:20:00,
2013-01-18 12:25:00,34.9,25.4,29.59,NNE,23,2.0,3.8,68,0.00,,,0.00,WUHU216HW,2013-01-18 12:25:00,
2013-01-18 12:30:00,34.9,25.4,29.59,East,90,4.0,4.0,68,0.00,,,0.00,WUHU216HW,2013-01-18 12:30:00,
2013-01-18 12:35:00,34.9,25.0,29.59,East,90,4.5,4.5,67,0.00,,,0.00,WUHU216HW,2013-01-18 12:35:00,
2013-01-18 12:40:00,34.9,25.7,29.59,ENE,68,2.2,4.5,69,0.00,,,0.00,WUHU216HW,2013-01-18 12:40:00,
2013-01-18 12:45:00,34.9,25.7,29.59,SE,135,7.2,7.2,69,0.00,,,0.00,WUHU216HW,2013-01-18 12:45:00,
2013-01-18 12:50:00,34.9,25.7,29.59,ESE,113,0.9,7.2,69,0.00,,,0.00,WUHU216HW,2013-01-18 12:50:00,
2013-01-18 12:55:00,34.9,25.4,29.59,ESE,113,6.3,7.2,68,0.00,,,0.00,WUHU216HW,2013-01-18 12:55:00,
2013-01-18 13:00:00,34.9,25.4,29.59,NNE,23,1.1,6.3,68,0.00,,,0.00,WUHU216HW,2013-01-18 13:00:00,
2013-01-18 13:05:00,34.9,25.4,29.59,SE,135,5.4,5.4,68,0.00,,,0.00,WUHU216HW,2013-01-18 13:05:00,
2013-01-18 13:10:00,34.9,25.4,29.59,SE,135,4.9,5.4,68,0.00,,,0.00,WUHU216HW,2013-01-18 13:10:00,
2013-01-18 13:15:00,34.9,25.0,29.59,East,90,2.2,5.4,67,0.00,,,0.00,WUHU216HW,2013-01-18 13:15:00,
2013-01-18 13:20:00,34.9,25.0,29.59,East,90,4.7,4.7,67,0.00,,,0.00,WUHU216HW,2013-01-18 13:20:00,
2013-01-18 13:25:00,34.9,25.4,29.59,SE,135,2.2,4.7,68,0.00,,,0.00,WUHU216HW,2013-01-18 13:25:00,
2013-01-18 13:30:00,34.9,25.0,29.58,SSE,158,2.7,4.7,67,0.00,,,0.00,WUHU216HW,2013-01-18 13:30:00,
2013-01-18 13:35:00,34.9,25.0,29.58,East,90,5.8,5.8,67,0.00,,,0.00,WUHU216HW,2013-01-18 13:35:00,
2013-01-18 13:40:00,34.9,25.0,29.58,East,90,8.5,8.5,67,0.00,,,0.00,WUHU216HW,2013-01-18 13:40:00,
2013-01-18 13:45:00,34.9,24.7,29.58,SE,135,4.9,8.5,66,0.00,,,0.00,WUHU216HW,2013-01-18 13:45:00,
2013-01-18 13:50:00,34.6,23.9,29.58,ENE,68,4.0,8.5,65,0.00,,,0.00,WUHU216HW,2013-01-18 13:50:00,
2013-01-18 13:55:00,34.6,24.3,29.58,ESE,113,1.8,4.0,66,0.00,,,0.00,WUHU216HW,2013-01-18 13:55:00,
2013-01-18 14:00:00,34.6,24.3,29.57,ENE,68,4.0,4.0,66,0.00,,,0.00,WUHU216HW,2013-01-18 14:00:00,
2013-01-18 14:05:00,34.4,24.1,29.57,East,90,6.3,6.3,66,0.00,,,0.00,WUHU216HW,2013-01-18 14:05:00,
2013-01-18 14:10:00,34.4,24.5,29.57,SE,135,4.3,6.3,67,0.00,,,0.00,WUHU216HW,2013-01-18 14:10:00,
2013-01-18 14:15:00,34.2,24.3,29.57,NE,45,2.5,6.3,67,0.00,,,0.00,WUHU216HW,2013-01-18 14:15:00,
2013-01-18 14:20:00,34.2,24.3,29.57,SE,135,3.4,4.3,67,0.00,,,0.00,WUHU216HW,2013-01-18 14:20:00,
2013-01-18 14:25:00,34.2,24.3,29.57,SE,135,8.7,8.7,67,0.00,,,0.00,WUHU216HW,2013-01-18 14:25:00,
2013-01-18 14:30:00,34.2,24.7,29.57,East,90,1.1,8.7,68,0.00,,,0.00,WUHU216HW,2013-01-18 14:30:00,
2013-01-18 14:35:00,34.2,24.7,29.57,SE,135,1.3,8.7,68,0.00,,,0.00,WUHU216HW,2013-01-18 14:35:00,
2013-01-18 14:40:00,34.0,24.5,29.56,East,90,2.9,2.9,68,0.00,,,0.00,WUHU216HW,2013-01-18 14:40:00,
2013-01-18 14:45:00,33.8,24.7,29.56,ESE,113,3.4,3.4,69,0.00,,,0.00,WUHU216HW,2013-01-18 14:45:00,
2013-01-18 14:50:00,33.8,25.0,29.56,ENE,68,3.4,3.4,70,0.00,,,0.00,WUHU216HW,2013-01-18 14:50:00,
2013-01-18 14:55:00,33.8,25.0,29.56,NW,315,1.8,3.4,70,0.00,,,0.00,WUHU216HW,2013-01-18 14:55:00,
2013-01-18 15:00:00,33.7,24.8,29.56,NE,45,4.3,4.3,70,0.00,,,0.00,WUHU216HW,2013-01-18 15:00:00,
2013-01-18 15:05:00,33.7,24.8,29.56,East,90,2.7,6.5,70,0.00,,,0.00,WUHU216HW,2013-01-18 15:05:00,
2013-01-18 15:10:00,33.7,24.5,29.56,ENE,68,3.8,6.5,69,0.00,,,0.00,WUHU216HW,2013-01-18 15:10:00,
2013-01-18 15:15:00,33.7,24.5,29.56,ESE,113,3.1,3.8,69,0.00,,,0.00,WUHU216HW,2013-01-18 15:15:00,
2013-01-18 15:20:00,33.7,24.8,29.56,East,90,2.7,3.8,70,0.00,,,0.00,WUHU216HW,2013-01-18 15:20:00,
2013-01-18 15:25:00,33.7,24.8,29.55,East,90,1.1,2.7,70,0.00,,,0.00,WUHU216HW,2013-01-18 15:25:00,
2013-01-18 15:30:00,33.5,24.7,29.55,SE,135,4.0,4.0,70,0.00,,,0.00,WUHU216HW,2013-01-18 15:30:00,
2013-01-18 15:35:00,33.5,24.7,29.55,ESE,113,3.8,4.0,70,0.00,,,0.00,WUHU216HW,2013-01-18 15:35:00,
2013-01-18 15:40:00,33.3,24.6,29.55,ESE,113,0.7,3.8,70,0.00,,,0.00,WUHU216HW,2013-01-18 15:40:00,
2013-01-18 15:45:00,33.3,24.8,29.55,ENE,68,0.4,3.8,71,0.00,,,0.00,WUHU216HW,2013-01-18 15:45:00,
2013-01-18 15:50:00,33.1,24.7,29.54,SE,135,3.1,3.1,71,0.00,,,0.00,WUHU216HW,2013-01-18 15:50:00,
2013-01-18 15:55:00,32.9,24.6,29.54,ESE,113,4.7,4.7,71,0.00,,,0.00,WUHU216HW,2013-01-18 15:55:00,
2013-01-18 16:00:00,32.9,24.8,29.54,East,90,2.2,4.7,72,0.00,,,0.00,WUHU216HW,2013-01-18 16:00:00,
2013-01-18 16:05:00,32.8,25.0,29.53,ESE,113,3.4,4.7,73,0.00,,,0.00,WUHU216HW,2013-01-18 16:05:00,
2013-01-18 16:10:00,32.8,25.0,29.53,ESE,113,2.9,3.4,73,0.00,,,0.00,WUHU216HW,2013-01-18 16:10:00,
2013-01-18 16:15:00,32.6,24.8,29.53,SE,135,4.7,4.7,73,0.00,,,0.00,WUHU216HW,2013-01-18 16:15:00,
2013-01-18 16:20:00,32.4,25.0,29.52,East,90,0.4,4.7,74,0.00,,,0.00,WUHU216HW,2013-01-18 16:20:00,
2013-01-18 16:25:00,32.4,25.4,29.52,East,90,1.6,1.6,75,0.00,,,0.00,WUHU216HW,2013-01-18 16:25:00,
2013-01-18 16:30:00,32.4,25.4,29.52,ESE,113,5.1,5.1,75,0.00,,,0.00,WUHU216HW,2013-01-18 16:30:00,
2013-01-18 16:35:00,32.2,25.5,29.52,SE,135,2.9,5.1,76,0.00,,,0.00,WUHU216HW,2013-01-18 16:35:00,
2013-01-18 16:40:00,32.2,25.5,29.52,ESE,113,4.0,5.1,76,0.00,,,0.00,WUHU216HW,2013-01-18 16:40:00,
2013-01-18 16:45:00,32.4,25.7,29.52,SE,135,3.1,4.0,76,0.00,,,0.00,WUHU216HW,2013-01-18 16:45:00,
2013-01-18 16:50:00,32.4,25.7,29.52,SE,135,2.5,4.0,76,0.00,,,0.00,WUHU216HW,2013-01-18 16:50:00,
2013-01-18 16:55:00,32.2,25.5,29.52,ESE,113,6.7,6.7,76,0.00,,,0.00,WUHU216HW,2013-01-18 16:55:00,
2013-01-18 17:00:00,32.2,25.5,29.52,ESE,113,4.7,6.7,76,0.00,,,0.00,WUHU216HW,2013-01-18 17:00:00,
2013-01-18 17:05:00,32.2,25.8,29.52,ENE,68,7.2,7.2,77,0.00,,,0.00,WUHU216HW,2013-01-18 17:05:00,
2013-01-18 17:10:00,32.2,25.8,29.51,East,90,3.1,7.2,77,0.00,,,0.00,WUHU216HW,2013-01-18 17:10:00,
2013-01-18 17:15:00,32.2,26.2,29.51,East,90,1.8,7.2,78,0.00,,,0.00,WUHU216HW,2013-01-18 17:15:00,
2013-01-18 17:20:00,32.0,26.0,29.51,NE,45,1.8,3.1,78,0.00,,,0.00,WUHU216HW,2013-01-18 17:20:00,
2013-01-18 17:25:00,32.0,26.0,29.51,East,90,5.1,5.1,78,0.00,,,0.00,WUHU216HW,2013-01-18 17:25:00,
2013-01-18 17:30:00,32.0,26.0,29.51,ESE,113,4.7,5.1,78,0.00,,,0.00,WUHU216HW,2013-01-18 17:30:00,
2013-01-18 17:35:00,32.0,26.0,29.50,SE,135,1.3,5.1,78,0.00,,,0.00,WUHU216HW,2013-01-18 17:35:00,
2013-01-18 17:41:00,32.0,26.0,29.50,SE,135,2.0,4.7,78,0.00,,,0.00,WUHU216HW,2013-01-18 17:41:00,
2013-01-18 17:46:00,32.0,26.0,29.50,NE,45,2.0,2.0,78,0.00,,,0.00,WUHU216HW,2013-01-18 17:46:00,
2013-01-18 17:51:00,32.0,26.0,29.50,ESE,113,3.4,3.4,78,0.00,,,0.00,WUHU216HW,2013-01-18 17:51:00,
2013-01-18 17:56:00,31.9,25.8,29.51,NNE,23,4.3,4.3,78,0.00,,,0.00,WUHU216HW,2013-01-18 17:56:00,
2013-01-18 18:01:00,31.9,25.8,29.50,North,0,2.2,4.3,78,0.00,,,0.00,WUHU216HW,2013-01-18 18:01:00,
2013-01-18 18:06:00,31.9,26.1,29.51,SE,135,5.4,5.4,79,0.00,,,0.00,WUHU216HW,2013-01-18 18:06:00,
2013-01-18 18:11:00,31.9,26.1,29.51,East,90,2.0,5.4,79,0.00,,,0.00,WUHU216HW,2013-01-18 18:11:00,
2013-01-18 18:16:00,31.9,26.1,29.51,East,90,7.4,7.4,79,0.00,,,0.00,WUHU216HW,2013-01-18 18:16:00,
2013-01-18 18:21:00,31.9,26.5,29.51,ENE,68,3.1,7.4,80,0.00,,,0.00,WUHU216HW,2013-01-18 18:21:00,
2013-01-18 18:26:00,31.7,26.3,29.52,ESE,113,3.1,7.4,80,0.00,,,0.00,WUHU216HW,2013-01-18 18:26:00,
2013-01-18 18:31:00,31.7,26.6,29.52,ENE,68,4.7,4.7,81,0.00,,,0.00,WUHU216HW,2013-01-18 18:31:00,
2013-01-18 18:36:00,31.7,26.6,29.52,SSE,158,4.5,4.7,81,0.00,,,0.00,WUHU216HW,2013-01-18 18:36:00,
2013-01-18 18:41:00,31.9,27.0,29.53,NE,45,3.4,4.9,82,0.00,,,0.00,WUHU216HW,2013-01-18 18:41:00,
2013-01-18 18:46:00,31.7,26.8,29.53,SE,135,2.7,4.9,82,0.00,,,0.00,WUHU216HW,2013-01-18 18:46:00,
2013-01-18 18:51:00,31.7,26.8,29.52,ESE,113,2.7,3.4,82,0.00,,,0.00,WUHU216HW,2013-01-18 18:51:00,
2013-01-18 18:56:00,31.7,26.8,29.52,NE,45,2.0,4.7,82,0.00,,,0.00,WUHU216HW,2013-01-18 18:56:00,
2013-01-18 19:01:00,31.7,26.8,29.52,North,0,1.1,4.7,82,0.00,,,0.00,WUHU216HW,2013-01-18 19:01:00,
2013-01-18 19:06:00,31.7,26.8,29.52,SE,135,3.6,3.6,82,0.00,,,0.00,WUHU216HW,2013-01-18 19:06:00,
2013-01-18 19:11:00,31.7,26.8,29.52,SE,135,1.8,3.6,82,0.00,,,0.00,WUHU216HW,2013-01-18 19:11:00,
2013-01-18 19:16:00,31.9,27.0,29.52,SE,135,6.9,6.9,82,0.00,,,0.00,WUHU216HW,2013-01-18 19:16:00,
2013-01-18 19:21:00,31.9,27.0,29.52,ESE,113,1.8,6.9,82,0.00,,,0.00,WUHU216HW,2013-01-18 19:21:00,
2013-01-18 19:26:00,32.0,27.2,29.53,ESE,113,3.4,6.9,82,0.00,,,0.00,WUHU216HW,2013-01-18 19:26:00,
2013-01-18 19:31:00,32.0,27.2,29.53,SE,135,3.4,3.4,82,0.00,,,0.00,WUHU216HW,2013-01-18 19:31:00,
2013-01-18 19:36:00,32.0,27.6,29.53,SE,135,6.3,6.3,83,0.00,,,0.00,WUHU216HW,2013-01-18 19:36:00,
2013-01-18 19:41:00,31.9,27.4,29.53,East,90,4.7,6.3,83,0.00,,,0.00,WUHU216HW,2013-01-18 19:41:00,
2013-01-18 19:46:00,31.9,27.4,29.53,ENE,68,0.4,6.3,83,0.00,,,0.00,WUHU216HW,2013-01-18 19:46:00,
2013-01-18 19:51:00,32.0,27.6,29.53,East,90,2.5,4.7,83,0.00,,,0.00,WUHU216HW,2013-01-18 19:51:00,
2013-01-18 19:56:00,32.0,27.2,29.53,ESE,113,2.7,3.6,82,0.00,,,0.00,WUHU216HW,2013-01-18 19:56:00,
2013-01-18 20:01:00,32.0,27.2,29.53,SSE,158,7.4,7.4,82,0.00,,,0.00,WUHU216HW,2013-01-18 20:01:00,
2013-01-18 20:06:00,32.0,27.2,29.53,ESE,113,2.0,7.4,82,0.00,,,0.00,WUHU216HW,2013-01-18 20:06:00,
2013-01-18 20:11:00,32.0,27.2,29.53,ESE,113,4.3,7.4,82,0.00,,,0.00,WUHU216HW,2013-01-18 20:11:00,
2013-01-18 20:16:00,32.0,27.2,29.53,ENE,68,3.8,4.3,82,0.00,,,0.00,WUHU216HW,2013-01-18 20:16:00,
2013-01-18 20:21:00,32.0,27.2,29.53,ENE,68,2.0,4.3,82,0.00,,,0.00,WUHU216HW,2013-01-18 20:21:00,
2013-01-18 20:26:00,31.9,27.0,29.53,East,90,3.6,4.7,82,0.00,,,0.00,WUHU216HW,2013-01-18 20:26:00,
2013-01-18 20:31:00,32.0,26.9,29.53,ENE,68,2.9,4.7,81,0.00,,,0.00,WUHU216HW,2013-01-18 20:31:00,
2013-01-18 20:36:00,32.0,26.9,29.53,ESE,113,3.4,3.6,81,0.00,,,0.00,WUHU216HW,2013-01-18 20:36:00,
2013-01-18 20:41:00,32.0,26.9,29.53,ESE,113,7.6,7.6,81,0.00,,,0.00,WUHU216HW,2013-01-18 20:41:00,
2013-01-18 20:46:00,32.0,27.2,29.53,ENE,68,3.8,7.6,82,0.00,,,0.00,WUHU216HW,2013-01-18 20:46:00,
2013-01-18 20:51:00,32.0,27.2,29.53,SE,135,4.7,4.7,82,0.00,,,0.00,WUHU216HW,2013-01-18 20:51:00,
2013-01-18 20:56:00,32.0,26.9,29.53,ESE,113,4.7,4.7,81,0.00,,,0.00,WUHU216HW,2013-01-18 20:56:00,
2013-01-18 21:01:00,32.0,26.9,29.54,ESE,113,2.9,4.7,81,0.00,,,0.00,WUHU216HW,2013-01-18 21:01:00,
2013-01-18 21:06:00,32.0,27.2,29.54,East,90,1.6,2.9,82,0.00,,,0.00,WUHU216HW,2013-01-18 21:06:00,
2013-01-18 21:11:00,32.0,27.2,29.54,ESE,113,5.6,5.6,82,0.00,,,0.00,WUHU216HW,2013-01-18 21:11:00,
2013-01-18 21:16:00,32.2,27.4,29.54,ESE,113,3.4,5.6,82,0.00,,,0.00,WUHU216HW,2013-01-18 21:16:00,
2013-01-18 21:21:00,32.2,27.4,29.54,SE,135,2.7,5.6,82,0.00,,,0.00,WUHU216HW,2013-01-18 21:21:00,
2013-01-18 21:26:00,32.4,27.5,29.54,NE,45,2.5,2.7,82,0.00,,,0.00,WUHU216HW,2013-01-18 21:26:00,
2013-01-18 21:31:00,32.4,27.5,29.54,SSW,203,2.0,2.7,82,0.00,,,0.00,WUHU216HW,2013-01-18 21:31:00,
2013-01-18 21:36:00,32.4,27.5,29.54,SSE,158,2.5,3.8,82,0.00,,,0.00,WUHU216HW,2013-01-18 21:36:00,
2013-01-18 21:41:00,32.4,27.5,29.54,SE,135,2.5,3.8,82,0.00,,,0.00,WUHU216HW,2013-01-18 21:41:00,
2013-01-18 21:46:00,32.4,27.5,29.54,SSE,158,3.8,3.8,82,0.00,,,0.00,WUHU216HW,2013-01-18 21:46:00,
2013-01-18 21:51:00,32.4,27.5,29.54,East,90,4.7,5.4,82,0.00,,,0.00,WUHU216HW,2013-01-18 21:51:00,
2013-01-18 21:56:00,32.4,27.5,29.54,NE,45,4.0,5.4,82,0.00,,,0.00,WUHU216HW,2013-01-18 21:56:00,
2013-01-18 22:01:00,32.6,27.7,29.55,NE,45,2.0,4.7,82,0.00,,,0.00,WUHU216HW,2013-01-18 22:01:00,
2013-01-18 22:06:00,32.6,28.0,29.54,SE,135,1.8,4.0,83,0.00,,,0.00,WUHU216HW,2013-01-18 22:06:00,
2013-01-18 22:11:00,32.4,27.8,29.54,SE,135,3.6,3.6,83,0.00,,,0.00,WUHU216HW,2013-01-18 22:11:00,
2013-01-18 22:16:00,32.6,28.0,29.54,SE,135,3.4,3.6,83,0.00,,,0.00,WUHU216HW,2013-01-18 22:16:00,
2013-01-18 22:21:00,32.6,28.3,29.54,East,90,2.9,3.6,84,0.00,,,0.00,WUHU216HW,2013-01-18 22:21:00,
2013-01-18 22:26:00,32.4,28.1,29.54,SSE,158,2.9,3.6,84,0.00,,,0.00,WUHU216HW,2013-01-18 22:26:00,
2013-01-18 22:31:00,32.4,28.5,29.54,North,0,4.0,4.0,85,0.00,,,0.00,WUHU216HW,2013-01-18 22:31:00,
2013-01-18 22:36:00,32.2,28.3,29.54,ESE,113,1.1,4.0,85,0.00,,,0.00,WUHU216HW,2013-01-18 22:36:00,
2013-01-18 22:41:00,32.2,28.3,29.54,ENE,68,1.8,4.0,85,0.00,,,0.00,WUHU216HW,2013-01-18 22:41:00,
2013-01-18 22:46:00,32.2,28.3,29.54,ESE,113,4.3,4.3,85,0.00,,,0.00,WUHU216HW,2013-01-18 22:46:00,
2013-01-18 22:51:00,32.2,28.3,29.54,ESE,113,1.1,4.3,85,0.00,,,0.00,WUHU216HW,2013-01-18 22:51:00,
2013-01-18 22:56:00,32.2,28.3,29.54,ESE,113,3.8,3.8,85,0.00,,,0.00,WUHU216HW,2013-01-18 22:56:00,
2013-01-18 23:01:00,32.2,28.3,29.54,SE,135,5.4,5.4,85,0.00,,,0.00,WUHU216HW,2013-01-18 23:01:00,
2013-01-18 23:06:00,32.2,28.3,29.55,East,90,4.0,5.4,85,0.00,,,0.00,WUHU216HW,2013-01-18 23:06:00,
2013-01-18 23:11:00,32.4,28.5,29.55,ESE,113,3.8,9.4,85,0.00,,,0.00,WUHU216HW,2013-01-18 23:11:00,
2013-01-18 23:16:00,32.4,28.7,29.55,SE,135,5.4,9.4,86,0.00,,,0.00,WUHU216HW,2013-01-18 23:16:00,
2013-01-18 23:21:00,32.4,28.7,29.55,ENE,68,3.4,5.4,86,0.00,,,0.00,WUHU216HW,2013-01-18 23:21:00,
2013-01-18 23:26:00,32.4,28.7,29.55,NNE,23,2.2,8.5,86,0.00,,,0.00,WUHU216HW,2013-01-18 23:26:00,
2013-01-18 23:31:00,32.4,28.7,29.55,SE,135,2.5,8.5,86,0.00,,,0.00,WUHU216HW,2013-01-18 23:31:00,
2013-01-18 23:36:00,32.4,28.7,29.55,NNE,23,1.1,2.5,86,0.00,,,0.00,WUHU216HW,2013-01-18 23:36:00,
2013-01-18 23:41:00,32.4,28.7,29.55,ESE,113,0.7,3.8,86,0.00,,,0.00,WUHU216HW,2013-01-18 23:41:00,
2013-01-18 23:46:00,32.4,28.7,29.55,East,90,0.9,3.8,86,0.00,,,0.00,WUHU216HW,2013-01-18 23:46:00,
2013-01-18 23:51:00,32.6,28.9,29.55,SE,135,4.7,4.7,86,0.00,,,0.00,WUHU216HW,2013-01-18 23:51:00,
2013-01-18 23:56:00,32.6,28.9,29.55,ESE,113,1.1,4.7,86,0.00,,,0.00,WUHU216HW,2013-01-18 23:56:00,